Morganton, NC

12:26 PM EDT on March 26, 2017 (GMT -0400)
Morganton-Lenoir

Weather History for KMRN - November, 2013

Change the Weather History Date:

Thursday, November 14, 2013

  Actual Average (KHKY) Record (KHKY)
Temperature  
Mean Temperature 39 °F -  
Max Temperature 60 °F 58 °F 78 °F (1999)
Min Temperature 19 °F 34 °F 17 °F (1986)
Degree Days  
Heating Degree Days 26    
Moisture  
Dew Point 20 °F    
Average Humidity 62    
Maximum Humidity 95    
Minimum Humidity 17    
Precipitation  
Precipitation 0.00 in - - ()
Sea Level Pressure  
Sea Level Pressure 30.41 in    
Wind  
Wind Speed 1 mph (SE)    
Max Wind Speed 6 mph    
Max Gust Speed -    
Visibility 10 miles    
Events      
Averages and records for this station are not official NWS values.
T = Trace of Precipitation, MM = Missing Value Source: NWS Daily Summary

Daily Weather History Graph

Daily Weather History Graph

Search for Another Location

Airport or City:

Trip Planner

Search our weather history database for the weather conditions in past years. The results will help you decide how hot, cold, wet, or windy it might be!

Date:

Astronomy

Nov. 14, 2013 Rise Set
Actual Time 7:01 AM EST 5:19 PM EST
Civil Twilight 6:34 AM EST 5:46 PM EST
Nautical Twilight 6:03 AM EST 6:17 PM EST
Astronomical Twilight 5:33 AM EST 6:47 PM EST
Moon 3:35 PM EST (11/14) 4:01 AM EST (11/14)
Length of Visible Light 11h 12m
Length of Day
10h 17m
Waxing Gibbous, 91% of the Moon is Illuminated
Nov 14
Waxing Gibbous
Nov 17
Full
Nov 25
Last Quarter
Dec 2
New
Dec 9
First Quarter

Hourly Weather History & Observations

Time (EST) Temp. Windchill Dew Point Humidity Pressure Visibility Wind Dir Wind Speed Gust Speed Precip Events Conditions
12:15 AM 23.4 °F 18.9 °F 19.4 °F 85% 30.49 in 10.0 mi NW 3.5 mph - N/A   Clear
12:35 AM 25.0 °F - 19.2 °F 79% 30.49 in 10.0 mi Calm Calm - N/A   Clear
12:55 AM 24.4 °F - 19.4 °F 81% 30.48 in 10.0 mi Calm Calm - N/A   Clear
1:15 AM 22.6 °F - 19.2 °F 87% 30.48 in 10.0 mi Calm Calm - N/A   Clear
1:35 AM 22.6 °F - 19.6 °F 88% 30.48 in 10.0 mi Calm Calm - N/A   Clear
1:55 AM 21.9 °F - 18.9 °F 88% 30.48 in 10.0 mi Calm Calm - N/A   Clear
2:15 AM 21.9 °F - 19.4 °F 90% 30.47 in 10.0 mi Calm Calm - N/A   Clear
2:35 AM 21.2 °F - 18.7 °F 90% 30.47 in 10.0 mi Calm Calm - N/A   Clear
2:55 AM 20.7 °F - 18.5 °F 91% 30.46 in 10.0 mi Calm Calm - N/A   Clear
3:15 AM 21.2 °F - 19.2 °F 92% 30.47 in 10.0 mi Calm Calm - N/A   Clear
3:35 AM 20.7 °F - 18.5 °F 91% 30.46 in 10.0 mi Calm Calm - N/A   Clear
3:55 AM 20.7 °F - 18.9 °F 93% 30.46 in 10.0 mi Calm Calm - N/A   Clear
4:15 AM 20.1 °F - 18.5 °F 93% 30.45 in 10.0 mi Calm Calm - N/A   Clear
4:35 AM 20.3 °F - 18.3 °F 92% 30.46 in 10.0 mi Calm Calm - N/A   Clear
4:55 AM 20.1 °F - 18.5 °F 93% 30.46 in 10.0 mi Calm Calm - N/A   Clear
5:15 AM 19.6 °F - 18.1 °F 94% 30.46 in 10.0 mi Calm Calm - N/A   Clear
5:35 AM 19.4 °F - 17.8 °F 93% 30.45 in 10.0 mi Calm Calm - N/A   Clear
5:55 AM 19.4 °F - 18.1 °F 95% 30.45 in 10.0 mi Calm Calm - N/A   Clear
6:15 AM 19.0 °F - 17.6 °F 94% 30.45 in 10.0 mi Calm Calm - N/A   Clear
6:35 AM 19.9 °F - 18.5 °F 94% 30.46 in 10.0 mi Calm Calm - N/A   Clear
6:55 AM 19.6 °F - 17.8 °F 93% 30.46 in 10.0 mi Calm Calm - N/A   Clear
7:15 AM 19.4 °F - 17.8 °F 93% 30.46 in 10.0 mi Calm Calm - N/A   Clear
7:35 AM 21.7 °F - 20.3 °F 94% 30.46 in 10.0 mi Calm Calm - N/A   Clear
7:55 AM 24.8 °F - 23.0 °F 93% 30.46 in 10.0 mi Calm Calm - N/A   Clear
8:15 AM 27.7 °F - 23.2 °F 83% 30.47 in 10.0 mi Calm Calm - N/A   Clear
8:35 AM 29.3 °F - 22.3 °F 75% 30.47 in 10.0 mi Calm Calm - N/A   Clear
8:55 AM 30.9 °F - 23.4 °F 74% 30.47 in 10.0 mi Calm Calm - N/A   Clear
9:15 AM 33.6 °F - 22.8 °F 65% 30.47 in 10.0 mi Calm Calm - N/A   Clear
9:35 AM 34.9 °F - 22.3 °F 60% 30.47 in 10.0 mi Calm Calm - N/A   Clear
9:55 AM 36.9 °F - 22.8 °F 57% 30.47 in 10.0 mi Calm Calm - N/A   Clear
10:15 AM 39.4 °F - 21.0 °F 48% 30.47 in 10.0 mi Calm Calm - N/A   Clear
10:35 AM 43.3 °F - 21.2 °F 41% 30.47 in 10.0 mi Calm Calm - N/A   Clear
10:55 AM 45.7 °F - 19.9 °F 36% 30.46 in 10.0 mi Calm Calm - N/A   Clear
11:15 AM 47.1 °F - 18.9 °F 33% 30.46 in 10.0 mi Calm Calm - N/A   Clear
11:35 AM 49.5 °F - 19.4 °F 31% 30.45 in 10.0 mi Calm Calm - N/A   Clear
11:55 AM 50.9 °F - 18.3 °F 28% 30.44 in 10.0 mi Calm Calm - N/A   Clear
12:15 PM 52.3 °F - 16.9 °F 25% 30.42 in 10.0 mi SSW 4.6 mph - N/A   Clear
12:35 PM 53.4 °F - 16.7 °F 24% 30.41 in 10.0 mi Calm Calm - N/A   Clear
12:55 PM 54.1 °F - 16.3 °F 23% 30.40 in 10.0 mi WSW 3.5 mph - N/A   Mostly Cloudy
1:15 PM 55.6 °F - 16.2 °F 21% 30.39 in 10.0 mi South 5.8 mph - N/A   Overcast
1:35 PM 56.1 °F - 13.8 °F 19% 30.39 in 10.0 mi Calm Calm - N/A   Scattered Clouds
1:55 PM 59.0 °F - 13.6 °F 17% 30.37 in 10.0 mi East 3.5 mph - N/A   Clear
2:15 PM 59.0 °F - 14.7 °F 18% 30.37 in 10.0 mi Calm Calm - N/A   Clear
2:35 PM 59.5 °F - 14.9 °F 17% 30.36 in 10.0 mi SE 4.6 mph - N/A   Clear
2:55 PM 59.9 °F - 15.4 °F 18% 30.36 in 10.0 mi ESE 3.5 mph - N/A   Clear
3:15 PM 59.9 °F - 15.4 °F 18% 30.35 in 10.0 mi Calm Calm - N/A   Clear
3:35 PM 59.5 °F - 15.1 °F 18% 30.35 in 10.0 mi ESE 4.6 mph - N/A   Clear
3:55 PM 59.0 °F - 15.3 °F 18% 30.35 in 10.0 mi SSE 4.6 mph - N/A   Clear
4:15 PM 58.6 °F - 16.9 °F 20% 30.34 in 10.0 mi SE 4.6 mph - N/A   Clear
4:35 PM 57.4 °F - 17.4 °F 21% 30.34 in 10.0 mi SE 3.5 mph - N/A   Clear
4:55 PM 55.6 °F - 18.0 °F 23% 30.34 in 10.0 mi SE 4.6 mph - N/A   Clear
5:15 PM 53.1 °F - 17.8 °F 25% 30.34 in 10.0 mi SE 3.5 mph - N/A   Clear
5:35 PM 49.5 °F - 20.3 °F 32% 30.34 in 10.0 mi SE 3.5 mph - N/A   Clear
5:55 PM 47.7 °F - 19.0 °F 32% 30.35 in 10.0 mi SE 4.6 mph - N/A   Clear
6:15 PM 41.9 °F - 22.3 °F 46% 30.35 in 10.0 mi Calm Calm - N/A   Clear
6:35 PM 38.3 °F - 24.8 °F 58% 30.36 in 10.0 mi Calm Calm - N/A   Clear
6:55 PM 37.2 °F - 23.7 °F 58% 30.36 in 10.0 mi Calm Calm - N/A   Clear
7:15 PM 35.1 °F - 22.6 °F 61% 30.36 in 10.0 mi Calm Calm - N/A   Clear
7:35 PM 34.2 °F - 22.6 °F 63% 30.36 in 10.0 mi Calm Calm - N/A   Clear
7:55 PM 35.2 °F - 21.7 °F 58% 30.36 in 10.0 mi Calm Calm - N/A   Clear
8:15 PM 33.3 °F - 21.9 °F 63% 30.37 in 10.0 mi Calm Calm - N/A   Clear
8:35 PM 31.5 °F - 22.5 °F 69% 30.36 in 10.0 mi Calm Calm - N/A   Clear
8:55 PM 31.6 °F - 22.1 °F 68% 30.36 in 10.0 mi Calm Calm - N/A   Clear
9:15 PM 30.0 °F - 22.6 °F 74% 30.36 in 10.0 mi Calm Calm - N/A   Clear
9:35 PM 30.2 °F - 23.0 °F 75% 30.36 in 10.0 mi Calm Calm - N/A   Clear
9:55 PM 29.1 °F - 22.6 °F 77% 30.37 in 10.0 mi Calm Calm - N/A   Clear
10:15 PM 29.1 °F - 22.3 °F 76% 30.37 in 10.0 mi Calm Calm - N/A   Clear
10:35 PM 28.0 °F - 21.9 °F 78% 30.37 in 10.0 mi Calm Calm - N/A   Clear
10:55 PM 31.1 °F - 23.0 °F 72% 30.36 in 10.0 mi Calm Calm - N/A   Clear
11:15 PM 28.6 °F - 22.5 °F 78% 30.37 in 10.0 mi Calm Calm - N/A   Clear
11:35 PM 26.8 °F - 22.5 °F 84% 30.37 in 10.0 mi Calm Calm - N/A   Clear
11:55 PM 27.1 °F 23.2 °F 22.5 °F 83% 30.36 in 10.0 mi North 3.5 mph - N/A   Clear